Accueil
METAR-TAF:

METAR-TAF

Aéroports :

Passo Rolle, Italie

latitude: 46-18N, longitude: 011-47E, altitude: 2004 m

Observation

Le bulletin a été fait il y a 30 minutes, à 23:55 UTC
Vent 14 kt de sud-est
Température 2°C
Humidité 87%
Pression 1012 hPa
Visibilité: 0100 m
brouillard

METAR: LIVR 252355Z 14014KT 0100 FG VV/// 02/00 Q1012 RMK MON INVIS VIS MIN 0100

Heure: 01:25 (00:25 UTC)


TAF: absent

Observations et prévisions météorologiques de plus de 4000 aéroports (messages METAR et TAF).

Les stations disponibles sont représentées par des disques jaunes et rouges sur la carte.

Passer la souris dessus pour voir le nom de la station.

Cliquer dessus pour voir les observations et prévisions météorologiques.

Pour changer de carte: cliquez sur les boutons verts avec une croix noire pour zoomer, sur le bouton vert avec un tiret pour effectuer un zoom arrière, ou sur les flèches vertes pour les cartes adjacentes.


METAR-TAF: